Tracking 28520 objects as of 1-Mar-2024
HD Live streaming from Space Station
objects crossing your sky now

SL-12 DEB

Track SL-12 DEB now!
10-day predictions


NORAD ID: 25684
Int'l Code: 1985-118X
Perigee: 565.5 km
Apogee: 15,368.6 km
Inclination: 64.9 °
Period: 284.8 minutes
Semi major axis: 14338 km
RCS: 0.0262 m2 (small)
Launch date: December 24, 1985
Source: Commonwealth of Independent States (former USSR) (CIS)
Launch site: TYURATAM MISSILE AND SPACE COMPLEX (TTMTR)

Note: This is SATELLITE DEBRIS
Your satellite tracking list
Your tracking list is empty




NASA's NSSDC Master Catalog

Two Line Element Set (TLE):
1 25684U 85118X   24059.10340153  .00004053  00000-0  11299-1 0  9990
2 25684  64.9369 322.5107 5162164  78.8435 332.8059  5.05668584458615
Source of the keplerian elements: AFSPC